GW1647 Weather Reports


time (UTC)temp
F
wind
direction
speed
knots
gust
knots
rain 1hr
in
rain 24hr
in
rain mn
in
humidity
%
barometer
mb
20260906183108 89 210 1.7 5.2 0.00 0.00 0.00 64 1015.6
20260906181610 87 0 1.7 4.3 0.00 0.00 0.00 66 1015.9
20260906180115 87 0 0.9 3.5 0.00 0.00 0.00 69 1016.0
20260906174607 86 0 0.0 8.7 0.00 0.00 0.00 71 1015.9
20260906173107 85 143 0.9 7.8 0.00 0.00 0.00 73 1016.1
20260906171606 83 134 0.9 7.8 0.00 0.00 0.00 74 1016.2
20260906170110 82 0 1.7 3.5 0.00 0.00 0.00 76 1016.5
20260906164607 81 159 1.7 8.7 0.00 0.00 0.00 79 1016.5
20260906163127 80 0 0.0 3.5 0.00 0.00 0.00 81 1016.6
20260906161610 79 0 0.0 3.5 0.00 0.00 0.00 82 1016.8
20260906160101 79 0 0.0 0.0 0.00 0.00 0.00 81 1017.2
20260906154607 79 0 0.0 2.6 0.00 0.00 0.00 81 1017.1
20260906153121 79 0 0.0 0.0 0.00 0.00 0.00 81 1017.1
20260906151609 80 0 0.0 3.5 0.00 0.00 0.00 81 1017.1
20260906150110 80 242 0.0 12.2 0.00 0.00 0.00 81 1017.6
20260906144605 80 164 3.5 11.3 0.00 0.00 0.00 81 1016.5
20260906143103 80 128 3.5 14.8 0.00 0.00 0.00 81 1016.3
20260906141601 79 0 2.6 11.3 0.00 0.00 0.00 82 1016.2
20260906140108 79 126 2.6 12.2 0.00 0.00 0.00 82 1016.4
20260906134603 79 142 3.5 13.0 0.00 0.00 0.00 81 1016.6
20260906133132 80 136 1.7 7.8 0.00 0.00 0.00 81 1016.5
20260906131616 80 124 1.7 8.7 0.00 0.00 0.00 82 1016.3
20260906130113 79 139 4.3 9.6 0.00 0.00 0.00 83 1016.4
20260906124601 78 0 0.9 7.8 0.00 0.00 0.00 84 1016.3
20260906123107 78 0 0.0 7.8 0.00 0.00 0.00 84 1016.0
20260906121606 77 0 0.0 9.6 0.00 0.00 0.00 84 1015.8
20260906120106 77 0 0.0 2.6 0.00 0.00 0.00 84 1015.6
20260906114558 77 137 0.9 8.7 0.00 0.00 0.00 84 1015.6
20260906113059 77 117 1.7 9.6 0.00 0.00 0.00 84 1015.3
20260906111606 78 0 0.9 3.5 0.00 0.00 0.00 84 1015.3
20260906110106 78 0 0.9 3.5 0.00 0.00 0.00 83 1015.5
20260906104606 78 151 0.9 2.6 0.00 0.00 0.00 83 1015.4
20260906103107 78 0 0.0 2.6 0.00 0.00 0.00 83 1015.3
20260906101605 78 121 0.0 1.7 0.00 0.00 0.00 82 1015.2
20260906100112 79 146 0.9 7.0 0.00 0.00 0.00 81 1015.2
20260906094609 79 0 0.9 9.6 0.00 0.00 0.00 81 1015.0
20260906093110 79 0 0.0 6.1 0.00 0.00 0.00 80 1015.1
20260906091604 79 0 0.0 4.3 0.00 0.00 0.00 80 1015.1
20260906090125 79 0 0.0 7.0 0.00 0.00 0.00 80 1015.2
20260906084606 79 0 0.9 7.0 0.00 0.00 0.00 79 1015.2
20260906083102 80 0 0.0 3.5 0.00 0.00 0.00 78 1015.0
20260906081604 80 135 0.9 9.6 0.00 0.00 0.00 78 1015.0
20260906080130 80 159 0.0 7.0 0.00 0.00 0.00 77 1015.0
20260906074600 80 140 0.9 8.7 0.00 0.00 0.00 77 1015.1
20260906073105 80 0 0.0 10.4 0.00 0.00 0.00 77 1014.7
20260906071604 81 156 1.7 10.4 0.00 0.00 0.00 77 1014.8
20260906070104 81 0 0.0 7.8 0.00 0.00 0.00 77 1015.0
20260906064556 81 0 0.0 5.2 0.00 0.00 0.00 77 1015.0
20260906063107 81 150 1.7 9.6 0.00 0.00 0.00 76 1015.2
20260906061607 82 151 0.0 9.6 0.00 0.00 0.00 76 1015.2
20260906060107 82 0 0.9 9.6 0.00 0.00 0.00 75 1015.3
20260906054557 82 142 1.7 10.4 0.00 0.00 0.00 75 1015.4
20260906053106 82 0 0.0 5.2 0.00 0.00 0.00 74 1015.3
20260906051605 83 0 1.7 7.8 0.00 0.00 0.00 74 1015.1
20260906050104 83 108 0.0 4.3 0.00 0.00 0.00 74 1015.1
20260906044605 83 132 1.7 4.3 0.00 0.00 0.00 74 1015.2
20260906043104 83 107 0.0 4.3 0.00 0.00 0.00 74 1015.3
20260906041604 83 110 0.9 3.5 0.00 0.00 0.00 74 1015.5
20260906034607 84 84 1.7 3.5 0.00 0.00 0.00 74 1015.4
20260906033106 84 114 0.9 4.3 0.00 0.00 0.00 74 1015.3
20260906031602 84 0 0.0 4.3 0.00 0.00 0.00 74 1015.1
20260906030059 84 108 1.7 3.5 0.00 0.00 0.00 74 1015.0
20260906024608 85 75 0.0 3.5 0.00 0.00 0.00 74 1014.6
20260906023103 85 0 0.9 7.0 0.00 0.00 0.00 73 1014.3
20260906021606 85 115 1.7 4.3 0.00 0.00 0.00 72 1014.2
20260906020112 86 0 0.9 4.3 0.00 0.00 0.00 71 1014.0
20260906014616 86 0 0.9 3.5 0.00 0.00 0.00 69 1013.7
20260906013107 87 97 0.9 2.6 0.00 0.00 0.00 68 1013.4
20260906011619 88 89 0.9 3.5 0.00 0.00 0.00 67 1013.4
20260906010105 88 80 0.9 8.7 0.00 0.00 0.00 66 1013.4
20260906004600 89 130 0.9 8.7 0.00 0.00 0.00 65 1013.2
20260906003108 89 0 0.9 5.2 0.00 0.00 0.00 64 1013.2
20260906001605 90 67 1.7 6.1 0.00 0.00 0.00 62 1013.2
20260906000105 91 139 2.6 9.6 0.00 0.00 0.00 60 1012.9
20260905234558 91 134 5.2 14.8 0.00 0.00 0.00 59 1012.8
20260905233134 91 138 3.5 13.0 0.00 0.00 0.00 59 1012.9
20260905231610 91 142 2.6 10.4 0.00 0.00 0.00 58 1013.0
20260905230105 91 140 3.5 12.2 0.00 0.00 0.00 58 1013.0
20260905224625 91 121 3.5 10.4 0.00 0.00 0.00 57 1012.9
20260905223108 91 124 3.5 13.0 0.00 0.00 0.00 56 1012.9
20260905221608 91 153 1.7 13.0 0.00 0.00 0.00 57 1012.7
20260905220105 91 119 7.0 15.6 0.00 0.00 0.00 56 1012.6
20260905214600 91 134 8.7 16.5 0.00 0.00 0.00 55 1012.6
20260905213103 91 120 2.6 11.3 0.00 0.00 0.00 56 1013.0
20260905211613 91 134 6.1 15.6 0.00 0.00 0.00 55 1013.2
20260905210105 90 132 6.1 14.8 0.00 0.00 0.00 55 1013.4
20260905204606 90 138 6.1 16.5 0.00 0.00 0.00 56 1013.5
20260905203101 89 125 7.0 16.5 0.00 0.00 0.00 55 1013.8
20260905201614 89 126 2.6 14.8 0.00 0.00 0.00 56 1014.3
20260905200107 89 46 4.3 12.2 0.00 0.00 0.00 56 1014.7
20260905194602 88 85 2.6 13.9 0.00 0.00 0.00 57 1015.3
20260905193101 88 61 5.2 14.8 0.00 0.00 0.00 56 1015.4
20260905191611 88 128 7.0 20.0 0.00 0.00 0.00 57 1015.4
20260905190134 87 107 3.5 16.5 0.00 0.00 0.00 63 1015.5
20260905184621 87 75 3.5 14.8 0.00 0.00 0.00 63 1016.2